User: anonymous   Login
Location: Asheville, NC
(35.6000°N, 82.5500°W)
Time: 00:25:54
(UTC-05:00)
Language:

N. Korean satellite - Orbit

View from above orbital plane
View from above orbital plane
View from above satellite
View from above satellite

Ground track
Ground track

The orbit data is extracted from the following two-line orbital elements,

1 39026U 12072A   17328.55987079 +.00002352 +00000-0 +92038-4 0  9991
2 39026 097.2175 340.9221 0039058 331.3179 028.5911 15.26111678274384
Epoch (UTC): 24 November 2017 13:26:12
Eccentricity: 0.0039058
inclination: 97.2175°
perigee height: 460 km
apogee height: 514 km
right ascension of ascending node: 340.9221°
argument of perigee: 331.3179°
revolutions per day: 15.26111678
mean anomaly at epoch: 28.5911°
orbit number at epoch: 27438

The dashed part of the orbit path shows where the satellite is in the earth's shadow,  

DLR